[[{"header":{"parameterUnit":"m.s-1","parameterCategory":1,"la1":30.2992,"la2":30.254,"lo1":-89.0895,"lo2":-89.0443,"dy":0.0025,"dx":0.0025,"nx":19,"ny":19,"refTime":"2026-03-21T21:00:00:Z","depth":0,"parameterNumber":2,"parameterNumberName":"U-component_of_WINDS"},"data":[0,0,0,4.6525,4.6532,4.6827,4.6828,4.7218,4.7222,0,0,0,0,0,0,0,0,0,0,0,4.6442,4.6445,4.6525,4.6532,4.6827,4.6828,4.7217,4.7222,0,0,0,0,0,0,0,0,0,0,0,4.6441,4.6444,4.6448,4.6533,4.6826,4.6828,4.7217,4.699,0,0,0,0,0,0,0,0,0,0,4.6702,4.6629,4.6443,4.6448,4.6535,4.6826,4.6828,4.6979,4.7004,4.7089,0,4.7162,0,4.7198,4.7248,4.725,0,0,0,4.653,4.6608,4.6683,4.6448,4.6538,4.6826,4.6693,4.6993,4.7022,4.7122,4.7167,4.7181,4.7204,4.7251,4.7253,4.7739,4.7741,0,0,4.6514,4.6499,4.6663,4.6701,4.6653,4.6684,4.6702,4.701,4.706,4.7169,4.719,4.7211,4.7253,4.7256,4.7736,4.7739,0,0,0,4.6468,4.6487,4.6555,4.6686,4.6738,4.6692,4.6714,4.7046,4.7069,4.7195,4.7215,4.7256,4.7261,4.7734,4.7737,4.7839,0,0,0,4.6459,4.6461,4.6548,4.6541,4.6732,4.6895,4.6743,4.7048,4.7083,4.7213,4.7256,4.7264,4.7731,4.7736,4.7831,4.7891,0,0,0,4.6422,4.6456,4.65,4.654,4.6666,4.689,4.6931,4.7056,4.7096,4.725,4.7265,4.7729,4.7735,4.7824,4.7879,4.8016,0,0,0,4.6379,4.6588,4.6501,4.6743,4.6663,4.6949,4.6929,4.7144,4.7288,4.7258,4.7732,4.7737,4.7821,4.7872,4.8007,4.8129,4.8177,0,0,4.6634,4.6618,4.6761,4.6693,4.699,4.6906,4.722,4.7368,4.7398,4.7624,4.7636,4.7834,4.7878,4.8014,4.845,4.8489,0,0,0,4.6837,4.6941,4.7023,4.7157,4.7273,4.7379,4.7479,4.7534,4.7727,4.751,4.792,4.7947,4.8027,4.8086,4.8118,4.8189,4.7763,4.7762,4.7762,4.7179,4.7204,4.7443,4.7504,4.7635,4.7736,4.7847,4.7939,4.7927,4.8023,4.8092,4.8353,4.8421,4.8446,4.8519,4.8156,4.8156,4.8157,4.8157,4.7557,4.7708,4.7685,4.791,4.7936,4.8126,4.8233,4.8218,4.8401,4.8304,4.8376,4.8269,4.8487,4.8552,4.8165,4.8164,4.8163,4.8162,4.8161,4.7786,4.7862,4.7923,4.8121,4.8271,4.8326,4.8502,4.852,4.8538,4.8609,4.8684,4.8683,4.8685,4.8643,4.8644,4.8645,4.8646,4.8646,4.8647,4.7999,4.8064,4.8209,4.8349,4.8438,4.8558,4.8661,4.8751,4.8855,4.8855,4.8855,4.8836,4.8502,4.8419,4.8661,4.8659,4.8657,4.8655,4.8654,4.8377,4.8294,4.8517,4.8606,4.8773,4.8922,4.8941,4.9121,4.9198,4.9285,4.9249,4.8999,4.8985,4.8959,4.8891,4.9241,4.9241,4.9241,4.9241,4.8571,4.8564,4.8797,4.8938,4.9079,4.9118,4.9374,4.9457,4.953,4.958,4.9531,4.9441,4.9414,4.9417,4.9381,4.9318,4.9769,4.9769,4.977,4.8806,4.8813,4.9026,4.9093,4.9224,4.9338,4.9578,4.9745,4.9811,4.9791,4.962,4.9597,4.9452,4.9403,4.9382,4.9326,4.921,0,0]},{"header":{"parameterUnit":"m.s-1","parameterCategory":1,"la1":30.2992,"la2":30.254,"lo1":-89.0895,"lo2":-89.0443,"dy":0.0025,"dx":0.0025,"nx":19,"ny":19,"refTime":"2026-03-21T21:00:00:Z","depth":0,"parameterNumber":3,"parameterNumberName":"V-component_of_WINDS"},"data":[0,0,0,0.2867,0.2869,0.2963,0.2964,0.3083,0.3084,0,0,0,0,0,0,0,0,0,0,0,0.2839,0.284,0.2867,0.2869,0.2963,0.2964,0.3083,0.3084,0,0,0,0,0,0,0,0,0,0,0,0.2839,0.284,0.2841,0.287,0.2963,0.2964,0.3082,0.3012,0,0,0,0,0,0,0,0,0,0,0.292,0.2895,0.284,0.2841,0.287,0.2963,0.2964,0.3008,0.3016,0.304,0,0.3062,0,0.3075,0.3092,0.3092,0,0,0,0.2869,0.2889,0.2914,0.2841,0.2871,0.2963,0.2921,0.3013,0.3021,0.305,0.3064,0.3068,0.3077,0.3093,0.3093,0.3234,0.3235,0,0,0.2864,0.2856,0.2908,0.292,0.2906,0.2918,0.2924,0.3018,0.3032,0.3064,0.3071,0.3079,0.3093,0.3094,0.3234,0.3235,0,0,0,0.2849,0.2853,0.2876,0.2915,0.2932,0.292,0.2927,0.3028,0.3036,0.3072,0.308,0.3094,0.3096,0.3233,0.3234,0.3261,0,0,0,0.2846,0.2844,0.2873,0.287,0.293,0.2981,0.2935,0.3029,0.304,0.308,0.3094,0.3097,0.3232,0.3234,0.3259,0.3276,0,0,0,0.2833,0.2842,0.2856,0.2869,0.2909,0.298,0.2993,0.3032,0.3045,0.3092,0.3097,0.3232,0.3233,0.3257,0.3272,0.3311,0,0,0,0.2817,0.2878,0.2856,0.2928,0.2908,0.2996,0.2993,0.3058,0.3102,0.3095,0.3232,0.3234,0.3256,0.327,0.3309,0.3344,0.3358,0,0,0.289,0.2887,0.2929,0.2912,0.3002,0.2982,0.3075,0.3122,0.3132,0.32,0.3203,0.326,0.3272,0.3311,0.3434,0.3444,0,0,0,0.295,0.298,0.3005,0.3047,0.3085,0.3118,0.3152,0.3169,0.3226,0.3166,0.3284,0.3291,0.3315,0.3332,0.3341,0.3362,0.3241,0.3241,0.3241,0.3043,0.3054,0.3125,0.3147,0.3188,0.3221,0.3255,0.3284,0.3283,0.331,0.3331,0.3404,0.3424,0.3431,0.3452,0.3349,0.3349,0.3349,0.3349,0.3151,0.3197,0.3194,0.3262,0.3273,0.333,0.3365,0.3362,0.3416,0.339,0.3411,0.3382,0.3442,0.3462,0.3351,0.3351,0.3351,0.3351,0.335,0.3215,0.3239,0.3259,0.3321,0.3366,0.3386,0.3439,0.3446,0.3454,0.3474,0.3497,0.3497,0.3498,0.3484,0.3485,0.3485,0.3485,0.3485,0.3486,0.3273,0.3295,0.3339,0.3384,0.3412,0.345,0.3483,0.3511,0.3543,0.3544,0.3544,0.3541,0.3446,0.3422,0.349,0.3489,0.3488,0.3488,0.3488,0.3382,0.3359,0.3427,0.3455,0.3508,0.3554,0.3562,0.3617,0.364,0.3666,0.3658,0.3586,0.3583,0.3576,0.3557,0.3655,0.3655,0.3655,0.3655,0.3437,0.3436,0.3508,0.3552,0.3596,0.3611,0.3687,0.3713,0.3737,0.3752,0.3738,0.3713,0.3705,0.3707,0.3697,0.3679,0.3806,0.3806,0.3806,0.3505,0.3509,0.3573,0.3596,0.3638,0.3674,0.3746,0.3796,0.3818,0.3813,0.3764,0.3757,0.3717,0.3703,0.3698,0.3683,0.365,0,0]}]]